Starlink 30802

operational
NORAD ID: 58150 Int'l Des: 2023-166 Owner: SPXS Country: US Constellation: starlink
LEOCIRCULAR

关于 Starlink 30802

正在加载描述...

实时位置

正在加载3D地球...

即将过境

高度历史

Altitude vs Time

uPlot chart will show altitude changes over time

两行轨道根数

1 58150U 23166A 25259.16067925 .00003077 00000-0 11600-3 0 9994
2 58150 53.1605 310.5893 0000550 87.4434 272.6630 15.30189277106455
Epoch: Sep 16, 2025 • Age: 9 hours

当前状态

高度 486.3 km
速度 7.62 km/s
星下点 -34.24°S, 26.42°W
发射日期 Oct 29, 2023
运行时间 1.8 years
类型 internet

技术详情

分类 Payload
质量 730.00 kg
干质量 700.00 kg
总质量 730.00 kg
长度 0.30 m
直径 4.10 m
跨度 29.00 m
形状 Box + pan
制造商 SPXS
平台类型 Starlink V2M
阶段状态 In Orbit
所有者/国家 SPXS/US

大型星座

Loading constellations...